| time (UTC) | temp F | wind direction | speed MPH | gust MPH | rain 1hr in | rain 24hr in | rain mn in | humidity % | barometer mb |
| 20260903143519 | 70 | 311 | 4.0 | 12.0 | 0.00 | 0.19 | 0.00 | 88 | 1012.8 |
| 20260903143024 | 70 | 280 | 7.0 | 14.0 | 0.00 | 0.19 | 0.00 | 88 | 1012.9 |
| 20260903142528 | 70 | 273 | 7.0 | 14.0 | 0.00 | 0.19 | 0.00 | 88 | 1012.9 |
| 20260903142013 | 70 | 259 | 6.0 | 12.0 | 0.00 | 0.19 | 0.00 | 89 | 1012.9 |
| 20260903141517 | 70 | 300 | 7.0 | 15.0 | 0.00 | 0.19 | 0.00 | 88 | 1012.8 |
| 20260903141024 | 70 | 304 | 8.0 | 15.0 | 0.00 | 0.19 | 0.00 | 89 | 1012.8 |
| 20260903140527 | 70 | 302 | 8.0 | 13.0 | 0.00 | 0.19 | 0.00 | 89 | 1012.7 |
| 20260903140012 | 70 | 302 | 8.0 | 15.0 | 0.00 | 0.19 | 0.00 | 89 | 1012.7 |
| 20260903135520 | 70 | 286 | 9.0 | 15.0 | 0.00 | 0.19 | 0.00 | 88 | 1012.8 |
| 20260903135026 | 70 | 316 | 7.0 | 13.0 | 0.00 | 0.19 | 0.00 | 89 | 1012.7 |
| 20260903134513 | 70 | 316 | 9.0 | 13.0 | 0.00 | 0.19 | 0.00 | 89 | 1012.7 |
| 20260903134018 | 70 | 288 | 9.0 | 17.0 | 0.00 | 0.19 | 0.00 | 89 | 1012.7 |
| 20260903133524 | 70 | 304 | 9.0 | 17.0 | 0.00 | 0.19 | 0.00 | 89 | 1012.6 |
| 20260903133111 | 70 | 277 | 8.0 | 16.0 | 0.00 | 0.19 | 0.00 | 89 | 1012.5 |
| 20260903132517 | 69 | 277 | 9.0 | 17.0 | 0.00 | 0.19 | 0.00 | 89 | 1012.5 |
| 20260903132017 | 69 | 287 | 9.0 | 17.0 | 0.00 | 0.19 | 0.00 | 89 | 1012.7 |
| 20260903131526 | 69 | 298 | 9.0 | 14.0 | 0.00 | 0.19 | 0.00 | 89 | 1012.8 |
| 20260903131014 | 69 | 281 | 7.0 | 14.0 | 0.00 | 0.19 | 0.00 | 89 | 1012.8 |
| 20260903130519 | 69 | 309 | 5.0 | 14.0 | 0.00 | 0.19 | 0.00 | 90 | 1012.6 |
| 20260903130025 | 69 | 283 | 8.0 | 14.0 | 0.00 | 0.19 | 0.00 | 90 | 1012.7 |
| 20260903125511 | 69 | 296 | 8.0 | 15.0 | 0.00 | 0.19 | 0.00 | 89 | 1012.7 |
| 20260903125013 | 69 | 280 | 9.0 | 16.0 | 0.00 | 0.19 | 0.00 | 89 | 1012.8 |
| 20260903124522 | 69 | 295 | 9.0 | 16.0 | 0.00 | 0.19 | 0.00 | 90 | 1012.9 |
| 20260903124003 | 68 | 295 | 7.0 | 14.0 | 0.00 | 0.19 | 0.00 | 90 | 1013.1 |
| 20260903123512 | 68 | 281 | 4.0 | 11.0 | 0.00 | 0.19 | 0.00 | 90 | 1013.1 |
| 20260903123018 | 68 | 307 | 4.0 | 10.0 | 0.00 | 0.19 | 0.00 | 91 | 1013.1 |
| 20260903122512 | 68 | 290 | 3.0 | 7.0 | 0.00 | 0.19 | 0.00 | 90 | 1013.0 |
| 20260903122052 | 68 | 285 | 4.0 | 7.0 | 0.00 | 0.19 | 0.00 | 90 | 1013.1 |
| 20260903121549 | 68 | 298 | 3.0 | 6.0 | 0.00 | 0.19 | 0.00 | 90 | 1013.0 |
| 20260903121048 | 67 | 162 | 2.0 | 7.0 | 0.00 | 0.19 | 0.00 | 90 | 1013.0 |
| 20260903120548 | 67 | 276 | 3.0 | 7.0 | 0.00 | 0.19 | 0.00 | 90 | 1013.0 |
| 20260903115547 | 68 | 298 | 0.0 | 8.0 | 0.00 | 0.19 | 0.00 | 90 | 1013.1 |
| 20260903115052 | 68 | 297 | 1.0 | 9.0 | 0.00 | 0.19 | 0.00 | 90 | 1013.2 |
| 20260903114547 | 68 | 243 | 3.0 | 14.0 | 0.00 | 0.19 | 0.00 | 90 | 1013.1 |
| 20260903114048 | 68 | 295 | 7.0 | 19.0 | 0.00 | 0.19 | 0.00 | 90 | 1013.1 |
| 20260903113550 | 68 | 263 | 7.0 | 19.0 | 0.00 | 0.19 | 0.00 | 90 | 1013.1 |
| 20260903113046 | 67 | 295 | 8.0 | 14.0 | 0.00 | 0.19 | 0.00 | 90 | 1013.0 |
| 20260903112548 | 67 | 301 | 6.0 | 16.0 | 0.00 | 0.19 | 0.00 | 90 | 1012.9 |
| 20260903112045 | 67 | 278 | 5.0 | 16.0 | 0.00 | 0.19 | 0.00 | 90 | 1013.2 |
| 20260903111544 | 67 | 304 | 3.0 | 8.0 | 0.00 | 0.19 | 0.00 | 90 | 1013.3 |
| 20260903111045 | 67 | 277 | 3.0 | 8.0 | 0.00 | 0.19 | 0.00 | 90 | 1013.3 |
| 20260903110545 | 67 | 285 | 3.0 | 9.0 | 0.00 | 0.19 | 0.00 | 90 | 1013.2 |
| 20260903110045 | 67 | 296 | 4.0 | 10.0 | 0.00 | 0.19 | 0.00 | 90 | 1013.1 |
| 20260903105544 | 67 | 256 | 5.0 | 10.0 | 0.00 | 0.19 | 0.00 | 90 | 1013.1 |
| 20260903105046 | 67 | 289 | 4.0 | 10.0 | 0.00 | 0.19 | 0.00 | 90 | 1013.2 |
| 20260903104547 | 67 | 276 | 4.0 | 11.0 | 0.00 | 0.19 | 0.00 | 90 | 1013.2 |
| 20260903104043 | 67 | 248 | 5.0 | 12.0 | 0.00 | 0.19 | 0.00 | 90 | 1013.2 |
| 20260903103546 | 67 | 297 | 4.0 | 12.0 | 0.00 | 0.19 | 0.00 | 90 | 1013.1 |
| 20260903103041 | 67 | 310 | 4.0 | 10.0 | 0.00 | 0.19 | 0.00 | 91 | 1013.0 |
| 20260903102540 | 66 | 282 | 3.0 | 8.0 | 0.00 | 0.19 | 0.00 | 92 | 1013.1 |
| 20260903102043 | 66 | 278 | 0.0 | 6.0 | 0.00 | 0.19 | 0.00 | 92 | 1013.1 |
| 20260903101538 | 66 | 297 | 1.0 | 5.0 | 0.00 | 0.19 | 0.00 | 92 | 1013.0 |
| 20260903101038 | 66 | 287 | 0.0 | 4.0 | 0.00 | 0.19 | 0.00 | 93 | 1013.0 |
| 20260903100540 | 66 | 242 | 0.0 | 0.0 | 0.00 | 0.19 | 0.00 | 93 | 1013.1 |
| 20260903100039 | 65 | 314 | 0.0 | 0.0 | 0.00 | 0.19 | 0.00 | 94 | 1013.1 |
| 20260903095538 | 65 | 270 | 0.0 | 0.0 | 0.00 | 0.19 | 0.00 | 94 | 1013.0 |
| 20260903095038 | 65 | 77 | 0.0 | 2.0 | 0.00 | 0.19 | 0.00 | 93 | 1012.9 |
| 20260903094541 | 66 | 78 | 0.0 | 4.0 | 0.00 | 0.19 | 0.00 | 93 | 1012.9 |
| 20260903094038 | 66 | 326 | 0.0 | 4.0 | 0.00 | 0.19 | 0.00 | 93 | 1013.0 |
| 20260903093536 | 66 | 345 | 0.0 | 5.0 | 0.00 | 0.19 | 0.00 | 93 | 1013.0 |
| 20260903093044 | 66 | 94 | 0.0 | 5.0 | 0.00 | 0.19 | 0.00 | 94 | 1012.9 |
| 20260903092536 | 65 | 300 | 0.0 | 3.0 | 0.00 | 0.19 | 0.00 | 94 | 1012.8 |
| 20260903092035 | 65 | 280 | 0.0 | 1.0 | 0.00 | 0.19 | 0.00 | 94 | 1012.8 |
| 20260903091635 | 65 | 280 | 0.0 | 6.0 | 0.00 | 0.19 | 0.00 | 94 | 1012.8 |
| 20260903091035 | 65 | 271 | 0.0 | 6.0 | 0.00 | 0.19 | 0.00 | 95 | 1012.8 |
| 20260903090535 | 65 | 94 | 0.0 | 2.0 | 0.00 | 0.19 | 0.00 | 95 | 1012.8 |
| 20260903090036 | 65 | 69 | 0.0 | 2.0 | 0.00 | 0.19 | 0.00 | 95 | 1012.8 |
| 20260903085535 | 65 | 275 | 0.0 | 1.0 | 0.00 | 0.19 | 0.00 | 94 | 1012.9 |
| 20260903085034 | 65 | 276 | 0.0 | 2.0 | 0.00 | 0.19 | 0.00 | 94 | 1013.0 |
| 20260903084536 | 65 | 280 | 0.0 | 2.0 | 0.00 | 0.19 | 0.00 | 94 | 1013.1 |
| 20260903084035 | 65 | 280 | 0.0 | 2.0 | 0.00 | 0.19 | 0.00 | 94 | 1013.0 |
| 20260903083534 | 65 | 293 | 0.0 | 2.0 | 0.00 | 0.19 | 0.00 | 95 | 1013.1 |
| 20260903083034 | 65 | 304 | 0.0 | 4.0 | 0.00 | 0.19 | 0.00 | 95 | 1013.2 |
| 20260903082534 | 65 | 305 | 0.0 | 4.0 | 0.00 | 0.19 | 0.00 | 95 | 1013.1 |
| 20260903082033 | 65 | 97 | 0.0 | 2.0 | 0.00 | 0.19 | 0.00 | 95 | 1013.0 |
| 20260903081534 | 65 | 345 | 0.0 | 0.0 | 0.00 | 0.19 | 0.00 | 94 | 1013.1 |
| 20260903081033 | 65 | 345 | 0.0 | 0.0 | 0.00 | 0.19 | 0.00 | 94 | 1013.1 |
| 20260903080532 | 65 | 345 | 0.0 | 0.0 | 0.00 | 0.19 | 0.00 | 93 | 1013.1 |
| 20260903080034 | 65 | 345 | 0.0 | 0.0 | 0.00 | 0.19 | 0.00 | 93 | 1013.0 |
| 20260903075533 | 66 | 344 | 0.0 | 4.0 | 0.00 | 0.19 | 0.00 | 92 | 1013.0 |
| 20260903075032 | 66 | 255 | 0.0 | 4.0 | 0.00 | 0.19 | 0.00 | 92 | 1012.9 |
| 20260903074534 | 66 | 300 | 0.0 | 3.0 | 0.00 | 0.19 | 0.00 | 92 | 1013.0 |
| 20260903074033 | 66 | 297 | 1.0 | 3.0 | 0.00 | 0.19 | 0.00 | 92 | 1012.9 |
| 20260903073532 | 66 | 290 | 0.0 | 4.0 | 0.00 | 0.19 | 0.00 | 92 | 1013.0 |
| 20260903073037 | 66 | 266 | 1.0 | 7.0 | 0.00 | 0.19 | 0.00 | 91 | 1013.1 |
| 20260903072530 | 66 | 268 | 2.0 | 10.0 | 0.00 | 0.19 | 0.00 | 91 | 1013.1 |
| 20260903072030 | 66 | 290 | 4.0 | 10.0 | 0.00 | 0.19 | 0.00 | 91 | 1013.0 |
| 20260903071536 | 66 | 297 | 4.0 | 9.0 | 0.00 | 0.19 | 0.00 | 91 | 1013.0 |
| 20260903071030 | 66 | 324 | 2.0 | 5.0 | 0.00 | 0.19 | 0.00 | 91 | 1013.0 |
| 20260903070529 | 66 | 294 | 2.0 | 6.0 | 0.00 | 0.19 | 0.00 | 91 | 1012.9 |
| 20260903070029 | 66 | 278 | 0.0 | 10.0 | 0.00 | 0.19 | 0.00 | 90 | 1012.9 |
| 20260903065530 | 66 | 314 | 5.0 | 9.0 | 0.00 | 0.19 | 0.00 | 90 | 1013.0 |
| 20260903065029 | 66 | 269 | 2.0 | 5.0 | 0.00 | 0.19 | 0.00 | 91 | 1012.8 |
| 20260903064535 | 66 | 293 | 2.0 | 8.0 | 0.00 | 0.19 | 0.00 | 91 | 1012.8 |
| 20260903064029 | 66 | 243 | 1.0 | 11.0 | 0.00 | 0.19 | 0.00 | 91 | 1012.9 |
| 20260903063528 | 66 | 216 | 1.0 | 11.0 | 0.00 | 0.19 | 0.00 | 90 | 1012.9 |
| 20260903063027 | 66 | 229 | 2.0 | 12.0 | 0.00 | 0.19 | 0.00 | 90 | 1012.9 |
| 20260903062528 | 66 | 288 | 3.0 | 12.0 | 0.00 | 0.19 | 0.00 | 90 | 1012.9 |
| 20260903062031 | 66 | 256 | 6.0 | 11.0 | 0.00 | 0.19 | 0.00 | 91 | 1012.7 |
| 20260903061540 | 66 | 267 | 3.0 | 11.0 | 0.00 | 0.19 | 0.00 | 91 | 1012.7 |
| 20260903061029 | 66 | 290 | 4.0 | 11.0 | 0.00 | 0.19 | 0.00 | 91 | 1012.6 |
| 20260903060526 | 66 | 305 | 0.0 | 12.0 | 0.00 | 0.19 | 0.00 | 90 | 1012.7 |
| 20260903060027 | 66 | 308 | 6.0 | 13.0 | 0.00 | 0.19 | 0.00 | 90 | 1012.6 |
| 20260903055525 | 66 | 295 | 8.0 | 15.0 | 0.00 | 0.19 | 0.00 | 90 | 1012.4 |
| 20260903055023 | 66 | 300 | 8.0 | 15.0 | 0.00 | 0.19 | 0.00 | 90 | 1012.4 |
| 20260903054522 | 66 | 276 | 8.0 | 18.0 | 0.00 | 0.19 | 0.00 | 90 | 1012.5 |
| 20260903054020 | 66 | 308 | 11.0 | 17.0 | 0.00 | 0.19 | 0.00 | 90 | 1012.4 |
| 20260903053518 | 65 | 294 | 8.0 | 15.0 | 0.00 | 0.19 | 0.00 | 91 | 1012.6 |
| 20260903053017 | 65 | 304 | 8.0 | 15.0 | 0.00 | 0.19 | 0.00 | 91 | 1012.6 |
| 20260903052517 | 65 | 300 | 5.0 | 9.0 | 0.00 | 0.19 | 0.00 | 92 | 1012.6 |
| 20260903052017 | 65 | 299 | 1.0 | 23.0 | 0.00 | 0.19 | 0.00 | 92 | 1012.7 |
| 20260903051516 | 65 | 296 | 7.0 | 23.0 | 0.00 | 0.19 | 0.00 | 91 | 1012.8 |
| 20260903051016 | 65 | 285 | 5.0 | 17.0 | 0.00 | 0.19 | 0.00 | 91 | 1012.6 |
| 20260903050515 | 65 | 302 | 4.0 | 13.0 | 0.00 | 0.19 | 0.00 | 91 | 1012.7 |
| 20260903050025 | 65 | 298 | 3.0 | 9.0 | 0.00 | 0.19 | 0.00 | 92 | 1013.1 |
| 20260903045514 | 65 | 305 | 4.0 | 11.0 | 0.01 | 0.19 | 0.00 | 92 | 1013.4 |
| 20260903045013 | 65 | 278 | 3.0 | 11.0 | 0.02 | 0.19 | 0.00 | 92 | 1013.4 |
| 20260903044513 | 65 | 295 | 3.0 | 8.0 | 0.03 | 0.19 | 0.00 | 92 | 1013.4 |
| 20260903044012 | 65 | 321 | 3.0 | 9.0 | 0.04 | 0.19 | 0.00 | 92 | 1013.6 |
| 20260903043514 | 65 | 312 | 2.0 | 9.0 | 0.05 | 0.19 | 0.00 | 93 | 1013.5 |
| 20260903043011 | 65 | 169 | 1.0 | 11.0 | 0.06 | 0.19 | 0.00 | 92 | 1013.6 |
| 20260903042512 | 65 | 300 | 3.0 | 12.0 | 0.07 | 0.19 | 0.00 | 92 | 1013.6 |
| 20260903042009 | 65 | 330 | 6.0 | 12.0 | 0.08 | 0.19 | 0.00 | 93 | 1014.0 |
| 20260903041513 | 64 | 314 | 6.0 | 11.0 | 0.09 | 0.19 | 0.00 | 94 | 1013.8 |
| 20260903041007 | 64 | 285 | 2.0 | 8.0 | 0.10 | 0.19 | 0.00 | 95 | 1013.3 |
| 20260903040507 | 64 | 300 | 3.0 | 8.0 | 0.11 | 0.19 | 0.00 | 94 | 1013.3 |
| 20260903040008 | 64 | 20 | 0.0 | 8.0 | 0.12 | 0.19 | 0.00 | 94 | 1013.6 |
| 20260903035505 | 64 | 65 | 1.0 | 10.0 | 0.12 | 0.18 | 0.18 | 94 | 1013.6 |
| 20260903035004 | 64 | 88 | 2.0 | 10.0 | 0.12 | 0.17 | 0.17 | 94 | 1013.2 |
| 20260903034503 | 64 | 300 | 2.0 | 10.0 | 0.11 | 0.16 | 0.16 | 94 | 1013.7 |
| 20260903034002 | 64 | 307 | 1.0 | 11.0 | 0.10 | 0.15 | 0.15 | 94 | 1014.3 |
| 20260903033502 | 64 | 323 | 2.0 | 11.0 | 0.09 | 0.14 | 0.14 | 94 | 1014.9 |
| 20260903033002 | 64 | 302 | 5.0 | 11.0 | 0.09 | 0.13 | 0.13 | 94 | 1014.9 |
| 20260903032503 | 64 | 323 | 3.0 | 9.0 | 0.08 | 0.12 | 0.12 | 94 | 1014.9 |
| 20260903032004 | 64 | 86 | 3.0 | 10.0 | 0.07 | 0.11 | 0.11 | 95 | 1014.5 |
| 20260903031505 | 63 | 280 | 2.0 | 10.0 | 0.06 | 0.10 | 0.10 | 95 | 1014.5 |
| 20260903031001 | 63 | 270 | 0.0 | 5.0 | 0.05 | 0.09 | 0.09 | 95 | 1014.8 |
| 20260903030501 | 63 | 290 | 1.0 | 5.0 | 0.04 | 0.08 | 0.08 | 95 | 1015.0 |
| 20260903025601 | 63 | 91 | 0.0 | 5.0 | 0.02 | 0.06 | 0.06 | 94 | 1015.2 |
| 20260903025100 | 64 | 113 | 0.0 | 5.0 | 0.01 | 0.05 | 0.05 | 94 | 1014.9 |
| 20260903024600 | 64 | 57 | 0.0 | 9.0 | 0.01 | 0.05 | 0.05 | 93 | 1014.7 |
| 20260903024059 | 64 | 97 | 0.0 | 11.0 | 0.01 | 0.05 | 0.05 | 93 | 1014.6 |
| 20260903023602 | 64 | 117 | 0.0 | 5.0 | 0.01 | 0.05 | 0.05 | 93 | 1014.6 |
| 20260903023103 | 64 | 281 | 0.0 | 9.0 | 0.00 | 0.04 | 0.04 | 92 | 1014.7 |
| 20260903022658 | 64 | 301 | 4.0 | 9.0 | 0.00 | 0.04 | 0.04 | 92 | 1014.8 |
| 20260903022058 | 64 | 289 | 0.0 | 3.0 | 0.00 | 0.04 | 0.04 | 92 | 1014.8 |
| 20260903021559 | 64 | 316 | 0.0 | 7.0 | 0.00 | 0.04 | 0.04 | 92 | 1014.8 |
| 20260903021058 | 64 | 311 | 1.0 | 7.0 | 0.00 | 0.04 | 0.04 | 92 | 1015.0 |
| 20260903020559 | 64 | 10 | 0.0 | 7.0 | 0.00 | 0.04 | 0.04 | 92 | 1015.1 |
| 20260903020058 | 64 | 242 | 0.0 | 4.0 | 0.00 | 0.04 | 0.04 | 92 | 1015.3 |
| 20260903015558 | 64 | 54 | 1.0 | 5.0 | 0.00 | 0.05 | 0.04 | 92 | 1015.6 |
| 20260903015057 | 64 | 295 | 0.0 | 9.0 | 0.00 | 0.05 | 0.04 | 92 | 1015.7 |
| 20260903014559 | 64 | 110 | 0.0 | 9.0 | 0.00 | 0.05 | 0.04 | 92 | 1015.6 |
| 20260903014057 | 64 | 285 | 1.0 | 7.0 | 0.00 | 0.05 | 0.04 | 92 | 1015.6 |
| 20260903013519 | 64 | 316 | 0.0 | 5.0 | 0.00 | 0.05 | 0.04 | 92 | 1016.0 |
| 20260903013031 | 64 | 248 | 1.0 | 5.0 | 0.00 | 0.05 | 0.04 | 92 | 1016.0 |
| 20260903012514 | 65 | 295 | 1.0 | 6.0 | 0.00 | 0.05 | 0.04 | 92 | 1015.9 |
| 20260903012014 | 65 | 134 | 2.0 | 6.0 | 0.00 | 0.05 | 0.04 | 93 | 1015.4 |
| 20260903011519 | 64 | 360 | 1.0 | 6.0 | 0.00 | 0.05 | 0.04 | 93 | 1015.5 |
| 20260903011026 | 64 | 111 | 0.0 | 11.0 | 0.00 | 0.05 | 0.04 | 93 | 1015.8 |
| 20260903010511 | 65 | 358 | 0.0 | 11.0 | 0.00 | 0.05 | 0.04 | 93 | 1015.9 |
| 20260903010020 | 65 | 96 | 2.0 | 9.0 | 0.00 | 0.05 | 0.04 | 92 | 1015.7 |
| 20260903005522 | 65 | 88 | 1.0 | 7.0 | 0.00 | 0.05 | 0.04 | 92 | 1015.8 |
| 20260903005008 | 65 | 47 | 0.0 | 7.0 | 0.00 | 0.05 | 0.04 | 92 | 1016.0 |
| 20260903004518 | 65 | 311 | 1.0 | 8.0 | 0.00 | 0.05 | 0.04 | 93 | 1016.2 |
| 20260903004019 | 65 | 300 | 2.0 | 8.0 | 0.00 | 0.05 | 0.04 | 93 | 1016.3 |
| 20260903003525 | 64 | 312 | 3.0 | 9.0 | 0.00 | 0.05 | 0.04 | 94 | 1016.0 |
| 20260903003012 | 64 | 252 | 4.0 | 9.0 | 0.00 | 0.05 | 0.04 | 95 | 1015.7 |
| 20260903002519 | 64 | 339 | 1.0 | 7.0 | 0.00 | 0.05 | 0.04 | 96 | 1015.7 |
| 20260903002022 | 63 | 311 | 0.0 | 4.0 | 0.00 | 0.05 | 0.04 | 96 | 1015.7 |
| 20260903001527 | 63 | 20 | 0.0 | 4.0 | 0.00 | 0.05 | 0.04 | 96 | 1016.0 |
| 20260903001012 | 63 | 56 | 0.0 | 5.0 | 0.00 | 0.05 | 0.04 | 96 | 1016.0 |
| 20260903000517 | 63 | 76 | 2.0 | 9.0 | 0.00 | 0.05 | 0.04 | 96 | 1015.9 |
| 20260903000017 | 63 | 82 | 2.0 | 9.0 | 0.00 | 0.05 | 0.04 | 97 | 1015.7 |
| 20260902235526 | 63 | 58 | 0.0 | 8.0 | 0.00 | 0.05 | 0.04 | 97 | 1015.0 |
| 20260902235008 | 62 | 303 | 1.0 | 8.0 | 0.00 | 0.05 | 0.04 | 97 | 1014.6 |
| 20260902234518 | 62 | 65 | 2.0 | 10.0 | 0.00 | 0.05 | 0.04 | 96 | 1014.3 |
| 20260902234018 | 62 | 323 | 1.0 | 10.0 | 0.00 | 0.05 | 0.04 | 96 | 1014.1 |
| 20260902233507 | 62 | 72 | 2.0 | 11.0 | 0.00 | 0.05 | 0.04 | 96 | 1013.9 |
| 20260902233014 | 62 | 89 | 3.0 | 11.0 | 0.00 | 0.05 | 0.04 | 96 | 1013.8 |
| 20260902232527 | 62 | 37 | 5.0 | 11.0 | 0.00 | 0.05 | 0.04 | 96 | 1014.3 |
| 20260902232009 | 62 | 34 | 4.0 | 14.0 | 0.00 | 0.05 | 0.04 | 96 | 1014.6 |
| 20260902231517 | 62 | 77 | 2.0 | 14.0 | 0.00 | 0.05 | 0.04 | 96 | 1014.8 |
| 20260902231023 | 62 | 62 | 3.0 | 9.0 | 0.00 | 0.05 | 0.04 | 96 | 1014.9 |
| 20260902230512 | 62 | 48 | 3.0 | 10.0 | 0.00 | 0.05 | 0.04 | 96 | 1015.3 |
| 20260902230016 | 62 | 64 | 3.0 | 10.0 | 0.00 | 0.05 | 0.04 | 96 | 1015.7 |
| 20260902225526 | 62 | 117 | 3.0 | 9.0 | 0.00 | 0.05 | 0.04 | 96 | 1015.7 |
| 20260902225012 | 62 | 54 | 3.0 | 10.0 | 0.00 | 0.05 | 0.04 | 96 | 1015.8 |
| 20260902224521 | 63 | 109 | 4.0 | 10.0 | 0.00 | 0.05 | 0.04 | 95 | 1015.9 |
| 20260902224022 | 63 | 80 | 1.0 | 10.0 | 0.00 | 0.05 | 0.04 | 95 | 1016.1 |
| 20260902223517 | 63 | 73 | 3.0 | 12.0 | 0.00 | 0.05 | 0.04 | 95 | 1016.2 |
| 20260902223018 | 63 | 121 | 5.0 | 11.0 | 0.00 | 0.05 | 0.04 | 95 | 1016.1 |
| 20260902222523 | 63 | 90 | 4.0 | 7.0 | 0.00 | 0.05 | 0.04 | 95 | 1016.4 |
| 20260902222009 | 63 | 65 | 1.0 | 6.0 | 0.00 | 0.05 | 0.04 | 95 | 1016.6 |
| 20260902221523 | 63 | 60 | 0.0 | 5.0 | 0.00 | 0.05 | 0.04 | 95 | 1016.6 |
| 20260902221018 | 63 | 96 | 2.0 | 8.0 | 0.00 | 0.05 | 0.04 | 95 | 1016.7 |
| 20260902220525 | 63 | 82 | 3.0 | 14.0 | 0.00 | 0.05 | 0.04 | 95 | 1016.5 |
| 20260902220008 | 63 | 56 | 4.0 | 14.0 | 0.00 | 0.05 | 0.04 | 95 | 1016.5 |
| 20260902215516 | 63 | 103 | 6.0 | 13.0 | 0.00 | 0.05 | 0.04 | 95 | 1016.5 |
| 20260902215020 | 63 | 79 | 6.0 | 11.0 | 0.00 | 0.05 | 0.04 | 95 | 1016.6 |
| 20260902214510 | 63 | 71 | 5.0 | 11.0 | 0.00 | 0.05 | 0.04 | 95 | 1016.6 |
| 20260902214016 | 63 | 88 | 5.0 | 11.0 | 0.00 | 0.05 | 0.04 | 94 | 1016.6 |
| 20260902213526 | 64 | 69 | 4.0 | 11.0 | 0.00 | 0.05 | 0.04 | 94 | 1016.6 |
| 20260902213022 | 64 | 67 | 3.0 | 14.0 | 0.00 | 0.05 | 0.04 | 94 | 1016.6 |
| 20260902212518 | 64 | 76 | 5.0 | 14.0 | 0.00 | 0.05 | 0.04 | 94 | 1016.5 |
| 20260902212020 | 64 | 41 | 6.0 | 14.0 | 0.00 | 0.05 | 0.04 | 94 | 1016.6 |
| 20260902211509 | 64 | 66 | 5.0 | 12.0 | 0.00 | 0.05 | 0.04 | 94 | 1016.5 |
| 20260902211014 | 64 | 115 | 6.0 | 14.0 | 0.00 | 0.05 | 0.04 | 94 | 1016.5 |
| 20260902210522 | 64 | 207 | 7.0 | 14.0 | 0.00 | 0.05 | 0.04 | 93 | 1016.6 |
| 20260902210014 | 65 | 108 | 6.0 | 11.0 | 0.00 | 0.05 | 0.04 | 93 | 1016.7 |
| 20260902205515 | 65 | 62 | 5.0 | 12.0 | 0.00 | 0.07 | 0.04 | 92 | 1016.7 |
| 20260902205019 | 65 | 113 | 5.0 | 12.0 | 0.00 | 0.07 | 0.04 | 92 | 1016.7 |
| 20260902204507 | 66 | 159 | 5.0 | 11.0 | 0.00 | 0.07 | 0.04 | 91 | 1016.7 |
| 20260902204014 | 66 | 60 | 5.0 | 11.0 | 0.00 | 0.07 | 0.04 | 91 | 1016.6 |
| 20260902203517 | 67 | 134 | 6.0 | 11.0 | 0.00 | 0.07 | 0.04 | 91 | 1016.6 |
| 20260902203025 | 67 | 42 | 3.0 | 11.0 | 0.00 | 0.07 | 0.04 | 91 | 1016.7 |
| 20260902202526 | 67 | 60 | 4.0 | 13.0 | 0.00 | 0.07 | 0.04 | 91 | 1016.9 |
| 20260902202011 | 67 | 84 | 4.0 | 13.0 | 0.00 | 0.07 | 0.04 | 90 | 1016.7 |
| 20260902201519 | 67 | 91 | 5.0 | 11.0 | 0.00 | 0.07 | 0.04 | 90 | 1016.5 |
| 20260902201017 | 67 | 70 | 4.0 | 11.0 | 0.00 | 0.07 | 0.04 | 91 | 1016.5 |
| 20260902200522 | 68 | 108 | 5.0 | 11.0 | 0.00 | 0.07 | 0.04 | 90 | 1016.7 |
| 20260902200013 | 68 | 62 | 2.0 | 11.0 | 0.00 | 0.07 | 0.04 | 91 | 1017.0 |
| 20260902195514 | 68 | 62 | 4.0 | 10.0 | 0.00 | 0.07 | 0.04 | 91 | 1017.1 |
| 20260902195021 | 68 | 257 | 3.0 | 10.0 | 0.00 | 0.07 | 0.04 | 91 | 1017.2 |
| 20260902194511 | 68 | 41 | 4.0 | 11.0 | 0.00 | 0.07 | 0.04 | 92 | 1017.0 |
| 20260902194017 | 67 | 101 | 5.0 | 11.0 | 0.00 | 0.07 | 0.04 | 92 | 1017.0 |
| 20260902193523 | 67 | 93 | 5.0 | 9.0 | 0.00 | 0.07 | 0.04 | 92 | 1016.9 |
| 20260902193009 | 67 | 94 | 5.0 | 12.0 | 0.00 | 0.07 | 0.04 | 93 | 1017.0 |
| 20260902192516 | 67 | 64 | 6.0 | 12.0 | 0.00 | 0.07 | 0.04 | 92 | 1017.0 |
| 20260902192023 | 67 | 105 | 5.0 | 11.0 | 0.00 | 0.07 | 0.04 | 92 | 1017.0 |
| 20260902191537 | 67 | 82 | 6.0 | 11.0 | 0.00 | 0.07 | 0.04 | 92 | 1017.1 |
| 20260902191017 | 67 | 70 | 2.0 | 6.0 | 0.00 | 0.07 | 0.04 | 94 | 1016.9 |
| 20260902190521 | 66 | 82 | 2.0 | 6.0 | 0.00 | 0.07 | 0.04 | 93 | 1017.0 |
| 20260902190022 | 67 | 62 | 2.0 | 8.0 | 0.00 | 0.07 | 0.04 | 93 | 1017.0 |
| 20260902185508 | 67 | 105 | 4.0 | 8.0 | 0.00 | 0.08 | 0.04 | 92 | 1017.1 |
| 20260902185016 | 68 | 65 | 3.0 | 8.0 | 0.00 | 0.08 | 0.04 | 91 | 1017.2 |
| 20260902184533 | 69 | 75 | 1.0 | 4.0 | 0.00 | 0.08 | 0.04 | 93 | 1017.3 |
| 20260902184028 | 68 | 44 | 1.0 | 3.0 | 0.00 | 0.08 | 0.04 | 93 | 1017.1 |
| 20260902183514 | 68 | 4 | 0.0 | 3.0 | 0.01 | 0.08 | 0.04 | 94 | 1016.9 |
| 20260902183017 | 67 | 302 | 1.0 | 3.0 | 0.01 | 0.08 | 0.04 | 94 | 1016.9 |
| 20260902182526 | 67 | 55 | 0.0 | 4.0 | 0.01 | 0.08 | 0.04 | 95 | 1016.7 |
| 20260902182008 | 66 | 54 | 1.0 | 6.0 | 0.01 | 0.08 | 0.04 | 96 | 1016.7 |
| 20260902181517 | 66 | 322 | 3.0 | 6.0 | 0.02 | 0.08 | 0.04 | 96 | 1016.7 |
| 20260902181017 | 65 | 305 | 0.0 | 7.0 | 0.02 | 0.08 | 0.04 | 96 | 1016.8 |
| 20260902180526 | 65 | 78 | 1.0 | 9.0 | 0.02 | 0.08 | 0.04 | 95 | 1017.1 |
| 20260902180013 | 65 | 60 | 3.0 | 8.0 | 0.02 | 0.08 | 0.04 | 96 | 1017.1 |
| 20260902175515 | 65 | 82 | 4.0 | 9.0 | 0.03 | 0.11 | 0.04 | 96 | 1017.0 |
| 20260902175022 | 65 | 60 | 2.0 | 9.0 | 0.03 | 0.11 | 0.04 | 96 | 1017.1 |
| 20260902174526 | 65 | 41 | 0.0 | 4.0 | 0.03 | 0.11 | 0.04 | 96 | 1017.2 |
| 20260902174011 | 65 | 89 | 0.0 | 4.0 | 0.03 | 0.11 | 0.04 | 96 | 1017.0 |
| 20260902173519 | 64 | 81 | 0.0 | 8.0 | 0.03 | 0.10 | 0.03 | 96 | 1017.0 |
| 20260902173019 | 64 | 60 | 4.0 | 9.0 | 0.03 | 0.10 | 0.03 | 96 | 1016.6 |
| 20260902172524 | 64 | 45 | 3.0 | 9.0 | 0.03 | 0.10 | 0.03 | 95 | 1016.4 |
| 20260902172012 | 64 | 48 | 2.0 | 7.0 | 0.03 | 0.10 | 0.03 | 95 | 1016.4 |
| 20260902171521 | 65 | 101 | 0.0 | 8.0 | 0.02 | 0.09 | 0.02 | 96 | 1016.9 |
| 20260902171021 | 65 | 302 | 2.0 | 8.0 | 0.02 | 0.09 | 0.02 | 96 | 1017.0 |
| 20260902170511 | 64 | 335 | 1.0 | 8.0 | 0.02 | 0.09 | 0.02 | 97 | 1017.1 |
| 20260902170014 | 64 | 307 | 2.0 | 8.0 | 0.02 | 0.09 | 0.02 | 97 | 1017.5 |
| 20260902165523 | 64 | 108 | 1.0 | 7.0 | 0.01 | 0.11 | 0.01 | 97 | 1017.7 |
| 20260902165009 | 63 | 318 | 1.0 | 4.0 | 0.01 | 0.11 | 0.01 | 97 | 1017.9 |
| 20260902164516 | 62 | 316 | 0.0 | 4.0 | 0.01 | 0.11 | 0.01 | 96 | 1018.2 |
| 20260902164022 | 62 | 44 | 0.0 | 4.0 | 0.01 | 0.11 | 0.01 | 96 | 1018.4 |
| 20260902163507 | 62 | 323 | 0.0 | 4.0 | 0.00 | 0.10 | 0.00 | 96 | 1018.3 |
| 20260902163014 | 62 | 47 | 0.0 | 4.0 | 0.00 | 0.10 | 0.00 | 96 | 1018.3 |
| 20260902162523 | 62 | 53 | 1.0 | 6.0 | 0.00 | 0.10 | 0.00 | 96 | 1018.1 |
| 20260902162008 | 62 | 108 | 2.0 | 6.0 | 0.00 | 0.10 | 0.00 | 95 | 1018.3 |
| 20260902161516 | 62 | 27 | 1.0 | 7.0 | 0.00 | 0.10 | 0.00 | 95 | 1018.2 |
| 20260902161025 | 62 | 75 | 3.0 | 7.0 | 0.00 | 0.10 | 0.00 | 95 | 1018.2 |
| 20260902160514 | 62 | 82 | 2.0 | 9.0 | 0.00 | 0.10 | 0.00 | 95 | 1018.0 |
| 20260902160015 | 63 | 91 | 2.0 | 9.0 | 0.00 | 0.10 | 0.00 | 95 | 1017.7 |
| 20260902155525 | 63 | 67 | 3.0 | 9.0 | 0.00 | 0.11 | 0.00 | 95 | 1017.7 |
| 20260902155012 | 63 | 94 | 3.0 | 10.0 | 0.00 | 0.11 | 0.00 | 95 | 1017.7 |
| 20260902154526 | 63 | 84 | 3.0 | 9.0 | 0.00 | 0.11 | 0.00 | 95 | 1017.9 |
| 20260902154006 | 63 | 41 | 4.0 | 9.0 | 0.00 | 0.11 | 0.00 | 95 | 1017.8 |
| 20260902153535 | 63 | 69 | 4.0 | 9.0 | 0.00 | 0.11 | 0.00 | 95 | 1018.1 |
| 20260902153021 | 63 | 74 | 1.0 | 7.0 | 0.00 | 0.11 | 0.00 | 96 | 1018.1 |
| 20260902152522 | 63 | 51 | 3.0 | 9.0 | 0.00 | 0.11 | 0.00 | 95 | 1018.2 |
| 20260902152026 | 63 | 82 | 3.0 | 9.0 | 0.00 | 0.11 | 0.00 | 96 | 1018.3 |
| 20260902151511 | 63 | 56 | 1.0 | 7.0 | 0.00 | 0.11 | 0.00 | 96 | 1018.3 |
| 20260902151016 | 63 | 53 | 2.0 | 7.0 | 0.00 | 0.11 | 0.00 | 96 | 1018.5 |
| 20260902150524 | 63 | 96 | 1.0 | 5.0 | 0.00 | 0.11 | 0.00 | 96 | 1018.6 |
| 20260902150012 | 63 | 56 | 2.0 | 4.0 | 0.00 | 0.11 | 0.00 | 96 | 1018.7 |
| 20260902145520 | 63 | 84 | 0.0 | 3.0 | 0.00 | 0.13 | 0.00 | 96 | 1018.5 |
| 20260902145016 | 63 | 67 | 0.0 | 4.0 | 0.00 | 0.13 | 0.00 | 96 | 1018.4 |
| 20260902144527 | 63 | 331 | 0.0 | 6.0 | 0.00 | 0.13 | 0.00 | 96 | 1018.4 |
| 20260902144023 | 63 | 68 | 2.0 | 9.0 | 0.00 | 0.13 | 0.00 | 96 | 1018.3 |